Regional Weather Roundup
Issued by NWS Green Bay, WI

Home | Current Version | Previous Version | Text Only | Print | Product List | Glossary On
Versions: 1 2 3 4 5 6 7 8 9 10 11 12 13 14 15 16 17 18 19 20 21 22 23 24 25 26 27 28 29 30 31 32 33 34 35 36 37 38 39 40 41 42 43 44 45 46 47 48 49 50
000
ASUS43 KGRB 272159
RWRGRB

NORTH-CENTRAL AND NORTHEAST WISCONSIN REGIONAL WEATHER ROUNDUP
NATIONAL WEATHER SERVICE GREEN BAY WI
400 PM CST TUE JAN 27 2015

WIZ005-009-010>012-018-019-272300-
NORTH CENTRAL WISCONSIN

CITY           SKY/WX    TMP DP  RH WIND       PRES   REMARKS
IRONWOOD       CLOUDY    27  21  80 SW6       30.14R
MANITOWISH WTR NOT AVBL
ARBOR VITAE    NOT AVBL
EAGLE RIVER    NOT AVBL
LAND O LAKES   NOT AVBL
RHINELANDER    CLOUDY    23  17  78 S3        30.16R
PHILLIPS       NOT AVBL
ANTIGO         NOT AVBL
TOMAHAWK       NOT AVBL
MERRILL        NOT AVBL
$$

WIZ013-073-272300-
NORTHEAST WISCONSIN

CITY           SKY/WX    TMP DP  RH WIND       PRES   REMARKS
IRON MOUNTAIN  CLOUDY    24  16  71 SW5       30.19R
MARINETTE      CLOUDY    25  16  68 SE3       30.24R
$$

WIZ017-030-035>037-045-272300-
CENTRAL WISCONSIN

CITY           SKY/WX    TMP DP  RH WIND       PRES   REMARKS
MEDFORD        NOT AVBL
WAUSAU         CLOUDY    24  20  84 CALM      30.17F
MOSINEE        CLOUDY    25  23  93 CALM      30.19S
MARSHFIELD     CLOUDY    26  21  81 SE5       30.18S HAZE
WISC RAPIDS    CLOUDY    26  21  81 SE3       30.22R
STEVENS POINT  NOT AVBL
WAUPACA        NOT AVBL
SHAWANO        NOT AVBL
CLINTONVILLE   NOT AVBL
$$

WIZ038-039-048-051-272300-
FOX VALLEY

CITY           SKY/WX    TMP DP  RH WIND       PRES   REMARKS
NWS GREEN BAY  CLOUDY    26  17  68 NE3       30.24R
APPLETON       CLOUDY    27  16  63 VRB3      30.23R
OSHKOSH        CLOUDY    27  16  63 NE5       30.22S
FOND DU LAC    CLOUDY    28  17  63 N6        30.22R
$$

WIZ022-050-052-272300-
EAST CENTRAL WISCONSIN

CITY           SKY/WX    TMP DP  RH WIND       PRES   REMARKS
STURGEON BAY   CLOUDY    25  16  68 N6        30.25S
MANITOWOC      NOT AVBL
SHEBOYGAN      CLOUDY    27  18  69 NE5       30.22S
$$

LMZ563-521-522-541>543-272300-
LAKESHORE

STATION/POSITION TIME  TEMP    WIND        PRES    VSBY  WAVE
                       AIR SEA DIR/SP/G                  HT/PER
                 (UTC) (F)     (DEG/KT/KT) (MB)    (MI)  (FT/S)
SHEBOYGAN LKSHOR 2100   27      20/  6/  7 1024.7R
KEWAUNEE LKSHORE 2100   26      CALM  /  3 1022.7R
NORTHPORT PIER   2100   26      80/  1/  2 1023.7S
SISTER BAY LKSHO 2100   30     360/  9/ 10   N/A
CHAMBERS ISLAND  2100   20     340/  4/  6 1024.0S
MENOMINEE LKSHOR 2100   18      10/  4     1024.4R
$$


USA.gov is the U.S. government's official web portal to all federal, state and local government web resources and services.